Regional Weather Roundup
Issued by NWS Grand Forks, ND

Home | Current Version | Previous Version | Text Only | Print | Product List | Glossary Off
Versions: 1 2 3 4 5 6 7 8 9 10 11 12 13 14 15 16 17 18 19 20 21 22 23 24 25 26 27 28 29 30 31 32 33 34 35 36 37 38 39 40 41 42 43 44 45 46 47 48 49 50

000
ASUS43 KFGF 251931
RWRFGF
PRAIRIE TO PINES  WEATHER ROUNDUP
NATIONAL WEATHER SERVICE EASTERN NORTH DAKOTA/GRAND FORKS ND
200 PM CDT FRI JUL 25 2014

 **SATELLITE DATA USED TO AUGMENT SKY COVER AT AUTOMATED STATIONS**
 *****  WEATHER ACROSS EASTERN NORTH DAKOTA  *****

CITY           SKY/WX    TMP DP  RH WIND       PRES   REMARKS
GRAND FORKS    PTSUNNY   79  69  71 S7        29.73F
GRAND FRKS AFB CLOUDY    77  68  75 W10       29.75S
GRAND FRKS NWS   N/A     79 N/A N/A W12         N/A
DEVILS LAKE    SUNNY     75  52  43 NW16      29.78F
FARGO          MOSUNNY   79  67  66 N8        29.75F
WAHPETON ARPT  PTCLDY    73  63  68 CALM      29.77S
$$

 ***** WEATHER ACROSS CENTRAL AND WESTERN NORTH DAKOTA  *****

CITY           SKY/WX    TMP DP  RH WIND       PRES   REMARKS
BISMARCK       SUNNY     81  46  29 NW9       29.85F
MINOT          SUNNY     75  46  35 W13       29.82S
JAMESTOWN      SUNNY     78  48  34 NW17G26   29.81S
MINOT AFB      SUNNY     74  52  45 W15G21    29.80F
GARRISON         N/A     75  50  41 W10G20    29.83F
WILLISTON      SUNNY     79  42  26 W13G24    29.81F
DICKINSON      SUNNY     76  42  29 W9        29.88F
HETTINGER      SUNNY     77  43  29 W7        29.92F
$$

 *****  OTHER AIRPORT OBSERVATIONS IN OUR AREA  *****

CITY           SKY/WX    TMP DP  RH WIND       PRES   REMARKS
WALHALLA       FAIR      77  52  41 W13G21      N/A
GRAFTON AIRPOR FAIR      79  66  65 W15G21    29.72S
VALLEY CITY AR MOCLDY    79  66  65 NW15G21   29.79S
CANDO          FAIR      75  54  46 W13       29.80S
CAVALIER APRT  FAIR      77  59  53 W14       29.73S
GWINNER        CLOUDY    75  70  83 N9        29.80S
ROLLA            N/A     73  54  49 SW15      29.80S
 ***** THE ABOVE OBSERVATIONS ARE NON NWS ARE NOT QUALITY
       CONTROLLED AND MAY MIS-REPORT RAIN FOR SNOW...
$$

  *****  WEATHER ACROSS NORTHERN MINNESOTA  *****

CITY           SKY/WX    TMP DP  RH WIND       PRES   REMARKS
FLAG ISLAND    SUNNY     72  64  78 S7        29.71F
WARROAD        PTSUNNY   73  66  78 S5        29.73F
ROSEAU         MOSUNNY   75  66  73 SW5       29.73F
HALLOCK        MOSUNNY   81  68  65 W12       29.70F
THF RVR FALLS  CLOUDY    73  66  78 W8        29.75F
BAUDETTE       CLOUDY    75  64  68 E5        29.75F
WASKISH        CLOUDY    73  64  73 CALM      29.75F
CROOKSTON      MOSUNNY   75  66  73 W6        29.75F
$$
  *****  WEATHER ACROSS CENTRAL AND WEST MINNESOTA  *****

CITY           SKY/WX    TMP DP  RH WIND       PRES   REMARKS
FOSSTON        PTSUNNY   77  66  69 SW6       29.76F
BEMIDJI        CLOUDY    73  65  77 NW6       29.77S
PARK RAPIDS    CLOUDY    78  66  66 W7        29.77F
ELBOW LAKE     CLOUDY    73  67  82 W5        29.77S
WADENA         PTSUNNY   75  66  73 SW3       29.77S
DETROIT LAKES  PTSUNNY   73  66  78 N3        29.78F
MOORHEAD       MOSUNNY   77  72  83 N5        29.76S
FERGUS FALLS   PTSUNNY   72  64  78 NW6       29.77R
MORRIS MN      MOSUNNY   79  68  69 W8        29.76S
STAPLES        CLOUDY    75  64  69 S3        29.78S
$$
  *****  WEATHER ELSEWHERE ACROSS MINNESOTA  *****

CITY           SKY/WX    TMP DP  RH WIND       PRES   REMARKS
DULUTH         CLOUDY    68  62  81 SW6       29.81F
INTRNTL FALLS  CLOUDY    73  63  70 SW3       29.76S
ELY            CLOUDY    70  63  78 SW7       29.79F
CLOQUET        CLOUDY    68  63  83 E5        29.80S
WHEATON        MOSUNNY   73  66  78 W6        29.78S
BRAINERD       PTSUNNY   77  65  66 W6        29.78S
HIBBING        CLOUDY    71  63  75 W3        29.79F
ALEXANDRIA     CLOUDY    75  67  76 SW8       29.80R
SAINT CLOUD    PTSUNNY   83  67  58 SW13      29.76F
MINNEAPOLIS    PTSUNNY   79  66  64 S13       29.79F
$$

  *****  WEATHER ACROSS SOUTH DAKOTA  *****

CITY           SKY/WX    TMP DP  RH WIND       PRES   REMARKS
SIOUX FALLS    CLOUDY    80  70  71 CALM      29.79R
BROOKINGS      NOT AVBL
WATERTOWN      CLOUDY    76  68  76 NW12      29.80R
HURON          PTSUNNY   80  68  66 N14       29.79S
SISSETON         N/A     73  69  87 NW15      29.77R
ABERDEEN       CLOUDY    73  67  81 N9        29.81S
MITCHELL       SUNNY     86  69  56 NW9       29.78R HX  90
PIERRE         SUNNY     85  50  29 N14G23    29.83F
MOBRIDGE       SUNNY     82  48  30 N14       29.83F
RAPID CITY     SUNNY     77  45  32 VRB3      29.96F
$$

  *****  SOME WEATHER IN NEARBY STATES *****

CITY           SKY/WX    TMP DP  RH WIND       PRES   REMARKS
GLASGOW MT     SUNNY     80  34  19 W24G32    29.78F
GREAT FALLS MT SUNNY     75  33  21 SW28G38   29.90F
CHEYENNE WY    PTSUNNY   84  54  35 SE7G20    30.14F
SCOTTSBLUFF NE PTSUNNY   82  44  26 SE7       30.01F
OMAHA NE       MOSUNNY   89  72  56 S13       29.73F HX  96
DES MOINES IA  PTSUNNY   78  65  63 S21G30    29.82R
DAVENPORT IA   PTSUNNY   70  62  76 S10G22    29.88R
CHICAGO IL     CLOUDY    73  55  53 SW17G23   29.95F
EAU CLAIRE WI  CLOUDY    73  64  73 S12       29.84F
LA CROSSE WI   CLOUDY    71  62  73 SE9       29.86F
$$

  *****  SOME NATIONAL WEATHER *****

CITY           SKY/WX    TMP DP  RH WIND       PRES   REMARKS
LA GUARDIA NY  MOSUNNY   81  52  36 NW7       29.98S
RALEIGH NC     PTSUNNY   80  62  54 E6        30.03F
ATLANTA GA     PTSUNNY   86  66  51 W7        30.02F
NEW ORLEANS LA PTSUNNY   89  73  59 SW6       30.01F HX  97
OKLAHOMA CITY  MOSUNNY   96  67  38 SW13      29.93F HX 100
ALBUQUERQUE NM MOSUNNY   91  44  19 VRB3      30.19F
SALT LAKE CITY MOSUNNY   85  48  27 NW9       30.03F
LOS ANGELES CA MOSUNNY   81  64  56 SW10      29.90S
BOISE ID       SUNNY     78  37  22 NW13      30.06F
SEATTLE WA     MOSUNNY   67  54  63 W9        30.16S
$$

*** WEATHER ACROSS MANITOBA...SASKATCHEWAN AND ONTARIO ***
                ***ONTARIO***

CITY           SKY/WX    TMP DP  RH WIND       PRES   REMARKS
GERALDTON      PTSUNNY   77  50  38 W12       29.77S
THUNDER BAY    CLOUDY    66  59  77 E8        29.78F
SIOUX LOOKOUT  PTSUNNY   73  57  56 SW3       29.76F
TORONTO        MOSUNNY   77  52  41 W12G18    29.99F
BIG TROUT LK   MOSUNNY   70  52  52 W7        29.74F
PICKLE LAKE    PTSUNNY   77  48  36 W8        29.74F
DRYDEN         PTSUNNY   72  61  68 S8        29.77F
KENORA         PTSUNNY   73  61  64 S7        29.75
$$
                *** MANITOBA***

CITY           SKY/WX    TMP DP  RH WIND       PRES   REMARKS
BRANDON        MOSUNNY   75  52  43 W21G28    29.72F
DAUPHIN        SUNNY     77  48  36 W17G26    29.66S
ISLAND LAKE    PTSUNNY   75  57  53 S8        29.73F
PILOT MOUND      N/A     73  46  38 W10G17      N/A
THE PAS        MOSUNNY   73  61  64 SE17      29.62F
THOMPSON       MOSUNNY   73  50  43 E13G22    29.76S
WINNIPEG       PTSUNNY   79  68  69 W10G17    29.68F
LYNN LAKE      SUNNY     77  54  44 E13G18    29.75S
CHURCHILL      CLOUDY    50  46  87 E15       29.94S
GILLAM         PTSUNNY   70  54  56 NE9       29.81F
$$
                ***SASKATCHEWAN***

CITY           SKY/WX    TMP DP  RH WIND       PRES   REMARKS
ESTEVAN        MOSUNNY   73  52  46 W15G21    29.78F
KINDERSLEY     LGT RAIN  54  52  94 SW25G38   29.48F
LLOYDMINSTER   CLOUDY    57  52  82 NE14G21   29.50R
PRINCE ALBERT  PTSUNNY   68  57  68 S8        29.56F
REGINA         SUNNY     73  50  43 SW21G26   29.70F
YORKTON        SUNNY     72  50  46 SW13      29.69S
N. BATTLEFORD  LGT RAIN  54  52  94 E12G17    29.47S FOG
LA RONGE       MOSUNNY   73  59  60 E5        29.59S
SASKATOON      LGT RAIN  57  54  88 S17G25    29.55F
SWIFT CURRENT  MOSUNNY   70  48  46 W21G31    29.64S
$$
NOTE: THESE ARE AUTOMATED STATIONS WITH LIMITED QUALITY CONTROL
      "FAIR" INDICATES FEW OR NO CLOUDS BELOW 12,000 FEET WITH NO
      SIGNIFICANT WEATHER AND/OR OBSTRUCTIONS TO VISIBILITY.
      SKY/WX - SKY CONDITION AND SIGNIFICANT WEATHER.
      TMP - AIR TEMPERATURE.    DP   - DEWPOINT TEMPERATURE.
      RH  - RELATIVE HUMIDITY.  PRES - PRESSURE.
      HX  - HEAT INDEX.         WCI  - WIND CHILL INDEX.
$



USA.gov is the U.S. government's official web portal to all federal, state and local government web resources and services.